Location: Unspecified
(0.0000°N, 0.0000°E)
Time: 18:24:57
(UTC+00:00)

GONETS M 08 (M18) - Visible Passes

Search period start: 17 May 2026 00:00
Search period end: 27 May 2026 00:00
Orbit: 1471 x 1517 km, 82.5° (Epoch: 17 May)

Date Brightness Start Highest point End Pass type
(mag) Time Alt. Az. Time Alt. Az. Time Alt. Az.
17 May ? 05:07:13 10° SSE 05:15:07 36° E 05:22:57 10° NNE visible
17 May ? 19:41:58 10° WNW 19:45:06 12° W 19:48:15 10° WSW visible
18 May ? 04:21:18 10° SE 04:25:48 15° E 04:30:17 10° ENE visible
18 May ? 18:48:24 10° NW 18:55:47 32° W 19:03:12 10° SSW visible
19 May ? 05:24:11 10° S 05:32:54 63° E 05:41:37 10° NNE visible
20 May ? 04:36:19 10° SSE 04:43:36 29° E 04:50:52 10° NE visible
20 May ? 19:08:32 10° WNW 19:13:35 17° W 19:18:40 10° SW visible
21 May ? 03:52:37 10° ESE 03:54:18 11° E 03:55:58 10° E visible
21 May ? 18:16:22 10° NNW 18:24:16 40° W 18:32:12 10° SSW visible
22 May ? 04:52:55 10° SSE 05:01:25 51° E 05:09:53 10° NNE visible
23 May ? 04:05:38 10° SE 04:12:07 23° E 04:18:32 10° NE visible
23 May ? 18:35:50 10° NW 18:42:04 22° W 18:48:20 10° SW visible
24 May ? 05:10:19 10° S 05:19:13 86° E 05:28:06 10° N visible
25 May ? 04:21:47 10° SSE 04:29:55 41° E 04:38:00 10° NNE visible
25 May ? 18:58:48 10° W 18:59:52 10° W 19:00:57 10° W visible
26 May ? 03:35:18 10° SE 03:40:36 17° E 03:45:53 10° NE visible
26 May ? 05:28:23 10° SSW 05:37:01 57° W 05:45:39 10° N visible
